| time (UTC) | temp F | wind direction | speed knots | gust knots | rain 1hr in | rain 24hr in | rain mn in | humidity % | barometer mb |
| 20260508202518 | 70 | 23 | 5.2 | 10.4 | 0.00 | 0.00 | 0.00 | 29 | 1018.8 |
| 20260508201523 | 70 | 0 | 6.1 | 10.4 | 0.00 | 0.00 | 0.00 | 30 | 1018.8 |
| 20260508200520 | 71 | 45 | 4.3 | 8.7 | 0.00 | 0.00 | 0.00 | 30 | 1018.9 |
| 20260508195517 | 70 | 23 | 4.3 | 8.7 | 0.00 | 0.00 | 0.00 | 30 | 1019.0 |
| 20260508194518 | 70 | 0 | 5.2 | 10.4 | 0.00 | 0.00 | 0.00 | 28 | 1019.0 |
| 20260508193517 | 70 | 23 | 5.2 | 11.3 | 0.00 | 0.00 | 0.00 | 30 | 1019.2 |
| 20260508192519 | 69 | 68 | 5.2 | 11.3 | 0.00 | 0.00 | 0.00 | 32 | 1019.1 |
| 20260508191517 | 69 | 45 | 5.2 | 10.4 | 0.00 | 0.00 | 0.00 | 31 | 1019.1 |
| 20260508190517 | 69 | 23 | 5.2 | 11.3 | 0.00 | 0.00 | 0.00 | 30 | 1019.3 |
| 20260508185517 | 69 | 45 | 5.2 | 10.4 | 0.00 | 0.00 | 0.00 | 30 | 1019.1 |
| 20260508184523 | 69 | 45 | 5.2 | 11.3 | 0.00 | 0.00 | 0.00 | 29 | 1019.2 |
| 20260508183539 | 69 | 68 | 3.5 | 7.8 | 0.00 | 0.00 | 0.00 | 33 | 1019.4 |
| 20260508182517 | 69 | 45 | 2.6 | 7.8 | 0.00 | 0.00 | 0.00 | 32 | 1019.7 |
| 20260508181540 | 70 | 315 | 2.6 | 7.0 | 0.00 | 0.00 | 0.00 | 32 | 1020.3 |
| 20260508180517 | 69 | 0 | 4.3 | 8.7 | 0.00 | 0.00 | 0.00 | 31 | 1019.9 |
| 20260508175517 | 69 | 0 | 3.5 | 7.8 | 0.00 | 0.00 | 0.00 | 30 | 1019.9 |
| 20260508174517 | 69 | 90 | 2.6 | 6.1 | 0.00 | 0.00 | 0.00 | 31 | 1019.4 |
| 20260508173517 | 68 | 315 | 3.5 | 9.6 | 0.00 | 0.00 | 0.00 | 30 | 1019.4 |
| 20260508172517 | 68 | 315 | 2.6 | 6.1 | 0.00 | 0.00 | 0.00 | 30 | 1019.5 |
| 20260508171519 | 67 | 315 | 1.7 | 6.1 | 0.00 | 0.00 | 0.00 | 32 | 1019.4 |
| 20260508170517 | 66 | 315 | 3.5 | 7.8 | 0.00 | 0.00 | 0.00 | 35 | 1019.1 |
| 20260508165521 | 66 | 338 | 4.3 | 7.8 | 0.00 | 0.00 | 0.00 | 36 | 1019.5 |
| 20260508164518 | 66 | 315 | 2.6 | 5.2 | 0.00 | 0.00 | 0.00 | 37 | 1019.4 |
| 20260508163517 | 66 | 315 | 1.7 | 6.1 | 0.00 | 0.00 | 0.00 | 37 | 1019.4 |
| 20260508162517 | 66 | 315 | 1.7 | 3.5 | 0.00 | 0.00 | 0.00 | 40 | 1019.4 |
| 20260508161517 | 66 | 315 | 1.7 | 3.5 | 0.00 | 0.00 | 0.00 | 40 | 1019.5 |
| 20260508160522 | 65 | 338 | 1.7 | 3.5 | 0.00 | 0.00 | 0.00 | 41 | 1019.5 |
| 20260508155517 | 65 | 338 | 1.7 | 2.6 | 0.00 | 0.00 | 0.00 | 45 | 1019.2 |
| 20260508154518 | 64 | 23 | 1.7 | 2.6 | 0.00 | 0.00 | 0.00 | 45 | 1019.2 |
| 20260508153517 | 63 | 293 | 0.9 | 4.3 | 0.00 | 0.00 | 0.00 | 48 | 1018.9 |
| 20260508152522 | 63 | 315 | 0.9 | 3.5 | 0.00 | 0.00 | 0.00 | 48 | 1019.1 |
| 20260508151526 | 63 | 315 | 0.9 | 2.6 | 0.00 | 0.00 | 0.00 | 43 | 1019.1 |
| 20260508150519 | 62 | 45 | 1.7 | 3.5 | 0.00 | 0.00 | 0.00 | 42 | 1018.7 |
| 20260508145517 | 63 | 23 | 1.7 | 3.5 | 0.00 | 0.00 | 0.00 | 41 | 1019.6 |
| 20260508144517 | 62 | 45 | 0.9 | 2.6 | 0.00 | 0.00 | 0.00 | 41 | 1019.3 |
| 20260508143517 | 61 | 68 | 2.6 | 5.2 | 0.00 | 0.00 | 0.00 | 42 | 1019.3 |
| 20260508142517 | 61 | 90 | 0.9 | 1.7 | 0.00 | 0.00 | 0.00 | 45 | 1019.7 |
| 20260508141517 | 60 | 90 | 2.6 | 3.5 | 0.00 | 0.00 | 0.00 | 46 | 1019.3 |
| 20260508140517 | 59 | 0.0 | 0.9 | 0.00 | 0.00 | 0.00 | 47 | 1018.9 | |
| 20260508135517 | 56 | 0.0 | 0.9 | 0.00 | 0.00 | 0.00 | 47 | 1019.2 | |
| 20260508134517 | 55 | 113 | 1.7 | 3.5 | 0.00 | 0.00 | 0.00 | 49 | 1018.6 |
| 20260508133523 | 54 | 135 | 1.7 | 2.6 | 0.00 | 0.00 | 0.00 | 51 | 1018.5 |
| 20260508132517 | 54 | 113 | 3.5 | 5.2 | 0.00 | 0.00 | 0.00 | 50 | 1018.4 |
| 20260508131537 | 53 | 113 | 2.6 | 5.2 | 0.00 | 0.00 | 0.00 | 49 | 1017.9 |
| 20260508130517 | 53 | 113 | 3.5 | 6.1 | 0.00 | 0.00 | 0.00 | 49 | 1017.7 |
| 20260508125517 | 53 | 113 | 2.6 | 5.2 | 0.00 | 0.00 | 0.00 | 49 | 1018.1 |
| 20260508124517 | 54 | 135 | 2.6 | 3.5 | 0.00 | 0.00 | 0.00 | 47 | 1017.9 |
| 20260508123537 | 55 | 113 | 3.5 | 4.3 | 0.00 | 0.00 | 0.00 | 46 | 1017.9 |
| 20260508122518 | 54 | 135 | 3.5 | 6.1 | 0.00 | 0.00 | 0.00 | 47 | 1017.7 |
| 20260508121522 | 53 | 135 | 0.9 | 2.6 | 0.00 | 0.00 | 0.00 | 47 | 1017.7 |
| 20260508120518 | 53 | 135 | 2.6 | 4.3 | 0.00 | 0.00 | 0.00 | 48 | 1017.7 |
| 20260508115517 | 54 | 135 | 2.6 | 3.5 | 0.00 | 0.00 | 0.00 | 48 | 1017.7 |
| 20260508114516 | 55 | 135 | 1.7 | 3.5 | 0.00 | 0.00 | 0.00 | 47 | 1018.0 |
| 20260508113517 | 55 | 135 | 2.6 | 5.2 | 0.00 | 0.00 | 0.00 | 46 | 1018.1 |
| 20260508112537 | 55 | 135 | 2.6 | 4.3 | 0.00 | 0.00 | 0.00 | 46 | 1018.4 |
| 20260508111517 | 54 | 135 | 2.6 | 4.3 | 0.00 | 0.00 | 0.00 | 46 | 1017.9 |
| 20260508110520 | 55 | 135 | 2.6 | 3.5 | 0.00 | 0.00 | 0.00 | 46 | 1017.9 |
| 20260508105516 | 55 | 135 | 1.7 | 3.5 | 0.00 | 0.00 | 0.00 | 46 | 1017.9 |
| 20260508104516 | 56 | 135 | 2.6 | 3.5 | 0.00 | 0.00 | 0.00 | 45 | 1017.8 |
| 20260508103520 | 56 | 135 | 2.6 | 3.5 | 0.00 | 0.00 | 0.00 | 44 | 1018.1 |
| 20260508102518 | 56 | 135 | 3.5 | 4.3 | 0.00 | 0.00 | 0.00 | 45 | 1018.0 |
| 20260508101517 | 55 | 113 | 2.6 | 3.5 | 0.00 | 0.00 | 0.00 | 46 | 1018.0 |
| 20260508100520 | 56 | 113 | 3.5 | 5.2 | 0.00 | 0.00 | 0.00 | 44 | 1018.1 |
| 20260508095516 | 56 | 135 | 2.6 | 3.5 | 0.00 | 0.00 | 0.00 | 43 | 1018.1 |
| 20260508094517 | 56 | 135 | 2.6 | 3.5 | 0.00 | 0.00 | 0.00 | 43 | 1018.2 |
| 20260508093516 | 56 | 135 | 2.6 | 4.3 | 0.00 | 0.00 | 0.00 | 43 | 1018.2 |
| 20260508092517 | 57 | 135 | 3.5 | 6.1 | 0.00 | 0.00 | 0.00 | 42 | 1017.8 |
| 20260508091517 | 57 | 158 | 1.7 | 3.5 | 0.00 | 0.00 | 0.00 | 43 | 1017.9 |
| 20260508090516 | 57 | 135 | 2.6 | 5.2 | 0.00 | 0.00 | 0.00 | 43 | 1018.0 |
| 20260508085516 | 57 | 135 | 1.7 | 3.5 | 0.00 | 0.00 | 0.00 | 44 | 1017.8 |
| 20260508084516 | 57 | 135 | 1.7 | 3.5 | 0.00 | 0.00 | 0.00 | 44 | 1017.8 |
| 20260508083520 | 58 | 113 | 5.2 | 7.0 | 0.00 | 0.00 | 0.00 | 42 | 1018.0 |
| 20260508082516 | 57 | 113 | 5.2 | 6.1 | 0.00 | 0.00 | 0.00 | 42 | 1017.7 |
| 20260508081536 | 59 | 113 | 3.5 | 5.2 | 0.00 | 0.00 | 0.00 | 40 | 1018.1 |
| 20260508080516 | 58 | 135 | 3.5 | 5.2 | 0.00 | 0.00 | 0.00 | 40 | 1017.9 |
| 20260508075520 | 57 | 113 | 4.3 | 7.8 | 0.00 | 0.00 | 0.00 | 41 | 1017.7 |
| 20260508074516 | 57 | 135 | 2.6 | 4.3 | 0.00 | 0.00 | 0.00 | 43 | 1017.8 |
| 20260508073516 | 58 | 135 | 4.3 | 7.0 | 0.00 | 0.00 | 0.00 | 41 | 1018.4 |
| 20260508072516 | 58 | 135 | 4.3 | 6.1 | 0.00 | 0.00 | 0.00 | 41 | 1018.4 |
| 20260508071516 | 58 | 135 | 3.5 | 6.1 | 0.00 | 0.00 | 0.00 | 40 | 1018.4 |
| 20260508070516 | 59 | 135 | 4.3 | 7.0 | 0.00 | 0.00 | 0.00 | 39 | 1018.3 |
| 20260508065518 | 59 | 135 | 4.3 | 6.1 | 0.00 | 0.00 | 0.00 | 39 | 1017.9 |
| 20260508064516 | 59 | 135 | 4.3 | 6.1 | 0.00 | 0.00 | 0.00 | 39 | 1017.8 |
| 20260508063536 | 59 | 135 | 4.3 | 7.0 | 0.00 | 0.00 | 0.00 | 39 | 1017.7 |
| 20260508062516 | 59 | 135 | 3.5 | 6.1 | 0.00 | 0.00 | 0.00 | 40 | 1017.3 |
| 20260508061516 | 59 | 135 | 3.5 | 6.1 | 0.00 | 0.00 | 0.00 | 40 | 1017.2 |
| 20260508060516 | 60 | 135 | 2.6 | 3.5 | 0.00 | 0.00 | 0.00 | 40 | 1017.4 |
| 20260508055516 | 59 | 135 | 3.5 | 6.1 | 0.00 | 0.00 | 0.00 | 39 | 1017.4 |
| 20260508054517 | 59 | 135 | 3.5 | 4.3 | 0.00 | 0.00 | 0.00 | 39 | 1017.4 |
| 20260508053517 | 60 | 135 | 3.5 | 6.1 | 0.00 | 0.00 | 0.00 | 39 | 1017.5 |
| 20260508052519 | 59 | 135 | 4.3 | 6.1 | 0.00 | 0.00 | 0.00 | 39 | 1017.1 |
| 20260508051516 | 59 | 113 | 3.5 | 5.2 | 0.00 | 0.00 | 0.00 | 39 | 1017.1 |
| 20260508050537 | 59 | 135 | 4.3 | 6.1 | 0.00 | 0.00 | 0.00 | 39 | 1017.2 |
| 20260508045516 | 60 | 113 | 3.5 | 5.2 | 0.00 | 0.00 | 0.00 | 39 | 1017.2 |
| 20260508044520 | 60 | 135 | 3.5 | 6.1 | 0.00 | 0.00 | 0.00 | 39 | 1017.3 |
| 20260508043516 | 61 | 113 | 3.5 | 5.2 | 0.00 | 0.00 | 0.00 | 38 | 1017.2 |
| 20260508042516 | 60 | 113 | 3.5 | 6.1 | 0.00 | 0.00 | 0.00 | 39 | 1016.8 |
| 20260508041516 | 61 | 135 | 4.3 | 7.0 | 0.00 | 0.00 | 0.00 | 38 | 1016.9 |
| 20260508040516 | 61 | 113 | 5.2 | 6.1 | 0.00 | 0.00 | 0.00 | 38 | 1016.8 |
| 20260508035539 | 61 | 113 | 5.2 | 7.8 | 0.00 | 0.00 | 0.00 | 38 | 1016.4 |
| 20260508034516 | 61 | 135 | 5.2 | 7.8 | 0.00 | 0.00 | 0.00 | 37 | 1016.4 |
| 20260508033516 | 60 | 113 | 6.1 | 7.0 | 0.00 | 0.00 | 0.00 | 39 | 1016.4 |
| 20260508032536 | 60 | 113 | 2.6 | 4.3 | 0.00 | 0.00 | 0.00 | 39 | 1016.0 |
| 20260508031516 | 61 | 113 | 4.3 | 6.1 | 0.00 | 0.00 | 0.00 | 38 | 1016.0 |
| 20260508030516 | 61 | 113 | 4.3 | 6.1 | 0.00 | 0.00 | 0.00 | 38 | 1016.0 |
| 20260508025521 | 62 | 113 | 2.6 | 5.2 | 0.00 | 0.00 | 0.00 | 37 | 1016.3 |
| 20260508024516 | 64 | 135 | 2.6 | 3.5 | 0.00 | 0.00 | 0.00 | 35 | 1016.5 |
| 20260508023517 | 65 | 158 | 1.7 | 3.5 | 0.00 | 0.00 | 0.00 | 32 | 1016.7 |
| 20260508022517 | 66 | 158 | 1.7 | 3.5 | 0.00 | 0.00 | 0.00 | 32 | 1016.4 |
| 20260508021536 | 67 | 0.0 | 1.7 | 0.00 | 0.00 | 0.00 | 32 | 1016.5 | |
| 20260508020516 | 67 | 135 | 1.7 | 2.6 | 0.00 | 0.00 | 0.00 | 34 | 1016.4 |
| 20260508015516 | 68 | 135 | 0.9 | 2.6 | 0.00 | 0.00 | 0.00 | 34 | 1015.8 |
| 20260508014516 | 69 | 135 | 1.7 | 3.5 | 0.00 | 0.00 | 0.00 | 33 | 1016.3 |
| 20260508013516 | 70 | 0.0 | 0.9 | 0.00 | 0.00 | 0.00 | 29 | 1016.5 | |
| 20260508012517 | 70 | 0.0 | 0.0 | 0.00 | 0.00 | 0.00 | 30 | 1016.4 | |
| 20260508011516 | 70 | 0.0 | 0.9 | 0.00 | 0.00 | 0.00 | 27 | 1016.3 | |
| 20260508010516 | 71 | 0.0 | 0.9 | 0.00 | 0.00 | 0.00 | 26 | 1016.5 | |
| 20260508005518 | 71 | 270 | 0.9 | 2.6 | 0.00 | 0.00 | 0.00 | 28 | 1016.7 |
| 20260508004536 | 71 | 23 | 0.9 | 2.6 | 0.00 | 0.00 | 0.00 | 26 | 1016.3 |
| 20260508003556 | 71 | 45 | 0.9 | 3.5 | 0.00 | 0.00 | 0.00 | 26 | 1016.9 |
| 20260508002516 | 71 | 23 | 1.7 | 3.5 | 0.00 | 0.00 | 0.00 | 26 | 1017.0 |
| 20260508001518 | 72 | 23 | 2.6 | 7.0 | 0.00 | 0.00 | 0.00 | 26 | 1017.1 |
| 20260508000516 | 72 | 0 | 3.5 | 7.8 | 0.00 | 0.00 | 0.00 | 26 | 1017.2 |
| 20260507235516 | 72 | 23 | 3.5 | 7.0 | 0.00 | 0.00 | 0.00 | 26 | 1017.2 |
| 20260507234516 | 71 | 338 | 5.2 | 8.7 | 0.00 | 0.00 | 0.00 | 26 | 1017.3 |
| 20260507233516 | 71 | 0 | 5.2 | 9.6 | 0.00 | 0.00 | 0.00 | 28 | 1017.5 |
| 20260507232517 | 72 | 23 | 6.1 | 10.4 | 0.00 | 0.00 | 0.00 | 28 | 1017.2 |
| 20260507231516 | 72 | 315 | 6.1 | 11.3 | 0.00 | 0.00 | 0.00 | 28 | 1017.4 |
| 20260507230516 | 73 | 0 | 6.1 | 10.4 | 0.00 | 0.00 | 0.00 | 27 | 1017.8 |
| 20260507225516 | 73 | 293 | 7.0 | 12.2 | 0.00 | 0.00 | 0.00 | 27 | 1017.8 |
| 20260507224515 | 73 | 270 | 4.3 | 9.6 | 0.00 | 0.00 | 0.00 | 25 | 1017.8 |
| 20260507223516 | 72 | 315 | 6.1 | 10.4 | 0.00 | 0.00 | 0.00 | 25 | 1017.8 |
| 20260507222515 | 72 | 315 | 5.2 | 8.7 | 0.00 | 0.00 | 0.00 | 25 | 1017.9 |
| 20260507220515 | 73 | 293 | 7.0 | 13.0 | 0.00 | 0.00 | 0.00 | 26 | 1018.5 |
| 20260507215518 | 72 | 293 | 5.2 | 10.4 | 0.00 | 0.00 | 0.00 | 25 | 1018.3 |
| 20260507214517 | 72 | 293 | 6.1 | 11.3 | 0.00 | 0.00 | 0.00 | 26 | 1018.5 |
| 20260507213518 | 72 | 315 | 7.0 | 14.8 | 0.00 | 0.00 | 0.00 | 26 | 1018.7 |
| 20260507212518 | 72 | 315 | 6.1 | 13.0 | 0.00 | 0.00 | 0.00 | 27 | 1019.3 |
| 20260507211517 | 72 | 315 | 3.5 | 9.6 | 0.00 | 0.00 | 0.00 | 26 | 1019.6 |
| 20260507210518 | 71 | 293 | 4.3 | 9.6 | 0.00 | 0.00 | 0.00 | 26 | 1019.4 |
| 20260507205519 | 70 | 270 | 3.5 | 11.3 | 0.00 | 0.00 | 0.00 | 25 | 1019.7 |
| 20260507204520 | 71 | 270 | 8.7 | 15.6 | 0.00 | 0.00 | 0.00 | 25 | 1019.6 |
| 20260507203518 | 71 | 315 | 5.2 | 11.3 | 0.00 | 0.00 | 0.00 | 26 | 1019.7 |